Regional Weather Roundup
Issued by NWS

Home | Current Version | Previous Version | Graphics & Text | Print | Product List | Glossary On
Versions: 1 2 3 4 5 6 7 8 9 10 11 12 13 14 15 16 17 18 19 20 21 22 23 24 25 26 27 28 29 30 31 32 33 34 35 36 37 38 39 40 41 42 43 44 45 46 47 48 49 50
000
ASUS43 KLMK 031410
RWRKY
KENTUCKY REGIONAL WEATHER ROUNDUP
NATIONAL WEATHER SERVICE LOUISVILLE KY
1000 AM EDT THU SEP 03 2015

NOTE "FAIR" INDICATES FEW OR NO CLOUDS BELOW 12,000 FEET
WITH NO SIGNIFICANT WEATHER AND/OR OBSTRUCTIONS TO VISIBILITY.

KYZ001>023-026-027-061>063-070>075-031500-
WESTERN AND SOUTH CENTRAL KENTUCKY

CITY           SKY/WX    TMP DP  RH WIND       PRES   REMARKS
PADUCAH        SUNNY     80  70  71 CALM      30.04S
HENDERSON      SUNNY     79  68  69 CALM      30.03F
OWENSBORO      SUNNY     80  71  74 CALM      30.05F
HOPKINSVILLE   SUNNY     78  68  71 E5        30.05S
BOWLING GREEN  SUNNY     80  69  69 CALM      30.05F
GLASGOW        SUNNY     79  68  69 CALM      30.06S
$$

KYZ024-025-028>034-038-045-046-053-031500-
NORTH CENTRAL KENTUCKY

CITY           SKY/WX    TMP DP  RH WIND       PRES   REMARKS
LOUISVILLE/SDF MOSUNNY   82  68  62 CALM      30.04F HAZE
LOUISVILLE/LOU SUNNY     80  71  74 CALM      30.05F HAZE
FORT KNOX      SUNNY     80  71  73 S2        30.05S
$$

KYZ035>037-039>044-047>052-055>060-089>105-031500-
NORTHEAST KENTUCKY

CITY           SKY/WX    TMP DP  RH WIND       PRES   REMARKS
LEXINGTON      SUNNY     80  68  66 CALM      30.06F
COVINGTON      MOSUNNY   80  69  69 W6        30.05F
FRANKFORT      SUNNY     78  68  71 N5        30.05S
$$

KYZ054-064>069-076>088-106>120-031500-
SOUTHEAST KENTUCKY

CITY           SKY/WX    TMP DP  RH WIND       PRES   REMARKS
JACKSON        SUNNY     76  66  71 NW5       30.09S
LONDON         SUNNY     78  67  68 CALM      30.08F
SOMERSET       SUNNY     72  70  94 CALM      30.09S
MIDDLESBORO    MOSUNNY   69  67  93 CALM      30.09S
MONTICELLO     SUNNY     78  71  79 CALM      30.10S
$$




USA.gov is the U.S. government's official web portal to all federal, state and local government web resources and services.